{"data":{"norad_id":55831,"epoch":"2026-05-25T03:20:08.113056Z","epoch_age_seconds":53154,"freshness":"FRESH","line1":"1 55831U 23029AM  26145.13898279  .00000005  00000+0 -20232-4 0  9991","line2":"2 55831  87.9175 279.0302 0002083 105.0439 255.0925 13.20770947158102","mean_motion":13.20770947,"eccentricity":0.0002083,"inclination_deg":87.9175,"raan_deg":279.0302,"arg_perigee_deg":105.0439,"mean_anomaly_deg":255.0925,"bstar":-2.0232e-5,"rev_number":15810,"period_min":109.02723165367,"perigee_km":1180.2019470351,"apogee_km":1183.3514070729,"semimajor_km":7559.913677054,"source":"CELESTRAK","updated_at":"2026-05-25T13:38:22.698255Z"}}